This is the latest recevied weather packets stored in our database for station/object WV8BRW. If no packets are shown the sender has not sent any weather packets the latest 10 day(s).
| Time | Temp. | Humidity | Pressure | Rain* | Wind** | Luminosity | Snow |
|---|---|---|---|---|---|---|---|
| 1777586184 | 15° C | 50% | 1013.6 hPa | 0 mm | - | 391 W/m² | - |
| 1777585882 | 15° C | 54% | 1013.4 hPa | 0 mm | - | 440 W/m² | - |
| 1777585577 | 14.44° C | 53% | 1013.4 hPa | 0 mm | - | 227 W/m² | - |
| 1777585273 | 15° C | 51% | 1013.5 hPa | 0 mm | - | 511 W/m² | - |
| 1777584972 | 14.44° C | 54% | 1013.5 hPa | 0 mm | - | 464 W/m² | - |
| 1777584670 | 15° C | 55% | 1013.5 hPa | 0 mm | - | 278 W/m² | - |
| 1777584367 | 15° C | 54% | 1013.7 hPa | 0 mm | - | 604 W/m² | - |
| 1777584063 | 15° C | 55% | 1013.7 hPa | 0 mm | - | 568 W/m² | - |
| 1777583758 | 14.44° C | 54% | 1013.7 hPa | 0 mm | - | 586 W/m² | - |
| 1777583457 | 15° C | 55% | 1013.8 hPa | 0 mm | - | 537 W/m² | - |
| 1777583151 | 15° C | 54% | 1013.5 hPa | 0 mm | - | 476 W/m² | - |
| 1777582847 | 14.44° C | 53% | 1013.6 hPa | 0 mm | - | 592 W/m² | - |
| 1777582544 | 15° C | 53% | 1013.8 hPa | 0 mm | - | 619 W/m² | - |
| 1777582239 | 15° C | 55% | 1013.8 hPa | 0 mm | - | 639 W/m² | - |
| 1777581937 | 15° C | 56% | 1013.7 hPa | 0 mm | - | 677 W/m² | - |
| 1777581633 | 14.44° C | 56% | 1013.7 hPa | 0 mm | - | 680 W/m² | - |
| 1777581326 | 14.44° C | 57% | 1013.8 hPa | 0 mm | - | 687 W/m² | - |
| 1777581022 | 13.89° C | 57% | 1013.9 hPa | 0 mm | - | 767 W/m² | - |
| 1777580721 | 13.89° C | 60% | 1014.1 hPa | 0 mm | - | 347 W/m² | - |
| 1777580418 | 14.44° C | 56% | 1013.9 hPa | 0 mm | - | 657 W/m² | - |
| 1777580113 | 14.44° C | 65% | 1013.9 hPa | 0 mm | - | 698 W/m² | - |
| 1777579810 | 13.89° C | 62% | 1013.9 hPa | 0 mm | - | 419 W/m² | - |
| 1777579509 | 13.33° C | 63% | 1014.1 hPa | 0 mm | - | 352 W/m² | - |
| 1777579204 | 12.78° C | 65% | 1014.4 hPa | 0 mm | - | 291 W/m² | - |
| 1777578898 | 12.78° C | 64% | 1014.4 hPa | 0 mm | - | 232 W/m² | - |
* Rain latest hour (hover to see other rain measurements)
** Current wind speed in m/s (hover to see current wind gust speed)